Weather History for Fremont, NE

Change the Weather History Date:

Tuesday, December 11, 2012

  Actual Average Record
Temperature  
Mean Temperature 30 °F -  
Max Temperature 43 °F 38 °F 61 °F (1990)
Min Temperature 17 °F 17 °F -7 °F (1962)
Degree Days  
Heating Degree Days 35    
Moisture  
Dew Point 19 °F    
Average Humidity 59    
Maximum Humidity 87    
Minimum Humidity 39    
Precipitation  
Precipitation 0.00 in - - ()
Sea Level Pressure  
Sea Level Pressure 29.96 in    
Wind  
Wind Speed 7 mph (WSW)    
Max Wind Speed 16 mph    
Max Gust Speed 20 mph    
Visibility 10 miles    
Events      
Averages and records for this station are not official NWS values.
T = Trace of Precipitation, MM = Missing Value Source: NWS Daily Summary

Daily Weather History Graph

Daily Weather History Graph

Search for Another Location

Airport:

Trip Planner

Search our weather history database for the weather conditions in past years. The results will help you decide how hot, cold, wet, or windy it might be!

Date:

Astronomy

Dec. 11, 2012 Rise Set
Actual Time 7:42 AM CST 4:56 PM CST
Civil Twilight 7:11 AM CST 5:27 PM CST
Nautical Twilight 6:36 AM CST 6:02 PM CST
Astronomical Twilight 6:02 AM CST 6:36 PM CST
Moon 5:38 AM CST (12/11) 3:37 PM CST (12/11)
Length of Visible Light 10h 16m
Length of Day
9h 13m
Waning Crescent, 4% of the Moon is Illuminated
Dec 11
Waning Crescent
Dec 13
New
Dec 19
First Quarter
Dec 28
Full
Jan 4
Last Quarter

Hourly Weather History & Observations

Time (CST) Temp. Windchill Dew Point Humidity Pressure Visibility Wind Dir Wind Speed Gust Speed Precip Events Conditions
12:15 AM 25.3 °F - 13.3 °F 60% 29.91 in 10.0 mi Calm Calm - N/A   Overcast
12:35 AM 26.2 °F 20.7 °F 13.6 °F 59% 29.91 in 10.0 mi West 4.6 mph - N/A   Overcast
12:55 AM 25.2 °F 19.5 °F 13.8 °F 62% 29.91 in 10.0 mi West 4.6 mph - N/A   Overcast
1:15 AM 26.4 °F 18.9 °F 14.5 °F 61% 29.90 in 10.0 mi West 6.9 mph - N/A   Overcast
1:35 AM 27.5 °F 21.1 °F 15.6 °F 61% 29.91 in 10.0 mi West 5.8 mph - N/A   Overcast
1:55 AM 29.1 °F 20.6 °F 16.5 °F 59% 29.92 in 10.0 mi West 9.2 mph - N/A   Overcast
2:15 AM 28.6 °F 19.3 °F 16.2 °F 60% 29.92 in 10.0 mi West 10.4 mph - N/A   Mostly Cloudy
2:35 AM 29.3 °F 21.5 °F 16.3 °F 58% 29.93 in 10.0 mi West 8.1 mph - N/A   Overcast
2:55 AM 28.4 °F 20.4 °F 16.2 °F 60% 29.92 in 10.0 mi West 8.1 mph - N/A   Mostly Cloudy
3:15 AM 26.2 °F 18.6 °F 16.3 °F 66% 29.92 in 10.0 mi West 6.9 mph - N/A   Scattered Clouds
3:35 AM 24.8 °F 16.1 °F 16.3 °F 70% 29.93 in 10.0 mi West 8.1 mph - N/A   Clear
3:55 AM 21.6 °F 13.0 °F 14.5 °F 74% 29.93 in 10.0 mi West 6.9 mph - N/A   Clear
4:15 AM 18.3 °F 9.1 °F 13.1 °F 80% 29.94 in 10.0 mi West 6.9 mph - N/A   Clear
4:35 AM 17.6 °F 8.2 °F 13.1 °F 83% 29.94 in 10.0 mi West 6.9 mph - N/A   Clear
4:55 AM 18.1 °F 7.9 °F 14.7 °F 86% 29.94 in 10.0 mi West 8.1 mph - N/A   Clear
5:15 AM 21.9 °F 12.5 °F 18.3 °F 86% 29.94 in 10.0 mi West 8.1 mph - N/A   Clear
5:35 AM 24.4 °F 16.5 °F 19.2 °F 81% 29.96 in 10.0 mi West 6.9 mph - N/A   Clear
5:55 AM 21.9 °F 14.5 °F 16.3 °F 79% 29.96 in 10.0 mi West 5.8 mph - N/A   Clear
6:15 AM 18.9 °F 12.1 °F 15.4 °F 87% 29.96 in 10.0 mi WSW 4.6 mph - N/A   Clear
6:35 AM 23.0 °F 15.8 °F 18.3 °F 82% 29.96 in 10.0 mi WSW 5.8 mph - N/A   Clear
6:55 AM 23.5 °F 14.5 °F 18.5 °F 81% 29.96 in 10.0 mi WSW 8.1 mph - N/A   Clear
7:15 AM 23.5 °F 15.4 °F 18.5 °F 81% 29.97 in 10.0 mi WSW 6.9 mph - N/A   Clear
7:35 AM 23.0 °F 13.1 °F 18.5 °F 83% 29.97 in 10.0 mi WSW 9.2 mph - N/A   Clear
8:15 AM 24.6 °F 17.7 °F 19.0 °F 79% 29.98 in 10.0 mi WSW 5.8 mph - N/A   Clear
8:35 AM 25.5 °F 14.9 °F 19.6 °F 78% 29.99 in 10.0 mi WSW 11.5 mph - N/A   Clear
8:55 AM 26.8 °F 16.5 °F 20.1 °F 76% 29.99 in 10.0 mi WSW 11.5 mph 16.1 mph N/A   Mostly Cloudy
9:15 AM 27.7 °F 17.6 °F 20.8 °F 75% 29.99 in 10.0 mi WSW 11.5 mph - N/A   Overcast
9:35 AM 28.4 °F 19.7 °F 20.8 °F 73% 30.00 in 10.0 mi WSW 9.2 mph - N/A   Mostly Cloudy
9:55 AM 30.7 °F 22.6 °F 21.6 °F 69% 30.00 in 10.0 mi West 9.2 mph - N/A   Scattered Clouds
10:15 AM 32.2 °F 25.0 °F 21.9 °F 66% 30.00 in 10.0 mi WSW 8.1 mph - N/A   Clear
10:35 AM 35.1 °F 26.9 °F 22.3 °F 60% 30.00 in 10.0 mi West 11.5 mph - N/A   Clear
10:55 AM 36.1 °F 26.5 °F 21.7 °F 56% 30.00 in 10.0 mi West 16.1 mph 19.6 mph N/A   Clear
11:15 AM 37.4 °F 29.3 °F 22.1 °F 54% 30.00 in 10.0 mi West 12.7 mph 18.4 mph N/A   Clear
11:35 AM 38.7 °F 32.4 °F 22.1 °F 51% 29.99 in 10.0 mi West 9.2 mph - N/A   Clear
11:55 AM 40.3 °F 33.0 °F 21.4 °F 47% 29.98 in 10.0 mi West 12.7 mph 16.1 mph N/A   Clear
12:15 PM 41.9 °F 35.0 °F 21.7 °F 45% 29.97 in 10.0 mi West 12.7 mph - N/A   Clear
12:35 PM 42.3 °F 34.4 °F 21.9 °F 44% 29.97 in 10.0 mi WSW 16.1 mph - N/A   Clear
12:55 PM 42.6 °F 35.2 °F 21.9 °F 44% 29.97 in 10.0 mi West 15.0 mph - N/A   Clear
1:15 PM 42.6 °F 35.2 °F 21.7 °F 44% 29.96 in 10.0 mi West 15.0 mph - N/A   Clear
1:35 PM 42.4 °F 36.5 °F 22.1 °F 44% 29.96 in 10.0 mi WSW 10.4 mph - N/A   Clear
1:55 PM 42.4 °F 36.5 °F 21.7 °F 44% 29.95 in 10.0 mi West 10.4 mph - N/A   Clear
2:15 PM 42.8 °F 38.0 °F 21.0 °F 42% 29.94 in 10.0 mi WSW 8.1 mph - N/A   Clear
2:35 PM 43.0 °F 37.7 °F 21.2 °F 42% 29.94 in 10.0 mi West 9.2 mph - N/A   Clear
2:55 PM 43.2 °F 37.4 °F 20.3 °F 40% 29.94 in 10.0 mi West 10.4 mph - N/A   Clear
3:15 PM 43.5 °F 38.9 °F 20.1 °F 39% 29.94 in 10.0 mi WSW 8.1 mph - N/A   Clear
3:35 PM 43.3 °F 39.2 °F 19.9 °F 39% 29.94 in 10.0 mi WSW 6.9 mph - N/A   Clear
3:55 PM 43.0 °F 37.2 °F 19.8 °F 40% 29.94 in 10.0 mi WSW 10.4 mph - N/A   Clear
4:15 PM 42.1 °F 38.4 °F 19.9 °F 41% 29.94 in 10.0 mi WSW 5.8 mph - N/A   Clear
4:35 PM 40.8 °F 37.8 °F 20.3 °F 44% 29.94 in 10.0 mi SW 4.6 mph - N/A   Clear
4:55 PM 39.4 °F - 20.7 °F 47% 29.94 in 10.0 mi Calm Calm - N/A   Clear
5:15 PM 39.0 °F - 20.8 °F 48% 29.94 in 10.0 mi Calm Calm - N/A   Clear
5:35 PM 37.6 °F - 21.0 °F 51% 29.94 in 10.0 mi Calm Calm - N/A   Clear
5:55 PM 36.0 °F 32.1 °F 20.8 °F 54% 29.94 in 10.0 mi South 4.6 mph - N/A   Clear
6:15 PM 36.3 °F 33.7 °F 20.3 °F 52% 29.94 in 10.0 mi SSW 3.5 mph - N/A   Clear
6:35 PM 34.0 °F 31.0 °F 20.3 °F 57% 29.96 in 10.0 mi SSW 3.5 mph - N/A   Clear
6:55 PM 32.7 °F 29.6 °F 19.2 °F 58% 29.96 in 10.0 mi South 3.5 mph - N/A   Clear
7:15 PM 28.4 °F 24.6 °F 18.1 °F 65% 29.96 in 10.0 mi SSW 3.5 mph - N/A   Clear
7:35 PM 33.3 °F 28.9 °F 19.4 °F 57% 29.96 in 10.0 mi South 4.6 mph - N/A   Clear
7:55 PM 33.3 °F 27.1 °F 19.2 °F 56% 29.97 in 10.0 mi South 6.9 mph - N/A   Clear
8:15 PM 34.5 °F 28.6 °F 19.0 °F 53% 29.97 in 10.0 mi South 6.9 mph - N/A   Clear
8:35 PM 34.2 °F 27.5 °F 18.1 °F 52% 29.97 in 10.0 mi SSW 8.1 mph - N/A   Clear
8:55 PM 34.2 °F 26.8 °F 18.0 °F 52% 29.97 in 10.0 mi South 9.2 mph - N/A   Clear
9:15 PM 33.6 °F 26.8 °F 17.6 °F 52% 29.97 in 10.0 mi South 8.1 mph - N/A   Clear
9:35 PM 33.8 °F 25.8 °F 17.6 °F 52% 29.97 in 10.0 mi South 10.4 mph - N/A   Clear
9:55 PM 33.8 °F 25.8 °F 17.6 °F 52% 29.96 in 10.0 mi South 10.4 mph - N/A   Clear
10:15 PM 32.9 °F 24.1 °F 17.6 °F 53% 29.96 in 10.0 mi South 11.5 mph - N/A   Clear
10:35 PM 32.9 °F 24.7 °F 17.6 °F 53% 29.96 in 10.0 mi South 10.4 mph 16.1 mph N/A   Clear
10:55 PM 32.5 °F 23.7 °F 17.6 °F 54% 29.96 in 10.0 mi South 11.5 mph - N/A   Clear
11:15 PM 32.2 °F 23.8 °F 17.6 °F 55% 29.96 in 10.0 mi South 10.4 mph - N/A   Clear
11:35 PM 32.2 °F 23.2 °F 17.6 °F 55% 29.96 in 10.0 mi South 11.5 mph - N/A   Clear
11:55 PM 32.0 °F 23.0 °F 17.6 °F 55% 29.97 in 10.0 mi South 11.5 mph 19.6 mph N/A   Clear